Regional Weather Roundup
Issued by NWS Charleston, SC

Current Version | Previous Version | Text Only | Print | Product List | Glossary Off
Versions: 1 2 3 4 5 6 7 8 9 10 11 12 13 14 15 16 17 18 19 20 21 22 23 24 25 26 27 28 29 30 31 32 33 34 35 36 37 38 39 40 41 42 43 44 45 46 47 48 49 50
000 ASUS42 KCHS 271112 RWRCHS REGIONAL WEATHER ROUNDUP NATIONAL WEATHER SERVICE CHARLESTON SC 700 AM EDT TUE JUN 27 2017 NOTE: "FAIR" INDICATES FEW OR NO CLOUDS BELOW 12,000 FEET WITH NO SIGNIFICANT WEATHER AND/OR OBSTRUCTIONS TO VISIBILITY. NOT ALL STATIONS ARE QUALITY CONTROLLED. USE DATA WITH CAUTION... ESPECIALLY DEWPOINT OBSERVATIONS. SCZ027-030-031-034>040-042>050-271200- ...SOUTHEAST SOUTH CAROLINA... CITY SKY/WX TMP DP RH WIND PRES REMARKS N CHARLESTON MOCLDY 71 67 87 N3 30.03S WATERFRONT PRK N/A 75 70 84 VRB3 30.01R JOHNS ISLAND FAIR 72 68 88 CALM 30.03R PINOPOLIS N/A 73 70 88 CALM 29.95S MONCKS CORNER FAIR 68 66 94 CALM 30.03S SUMMERVILLE CLOUDY 70 68 94 CALM 30.04S BEAUFORT MCAS MOCLDY 75 73 93 N3 30.02S BEAUFORT ARPT FAIR 72 70 94 CALM 30.02S HILTON HEAD IS MOCLDY 75 73 94 CALM 30.04R WALTERBORO CLOUDY 68 66 94 CALM 30.04F ALLENDALE FAIR 68 68 100 CALM 30.03S ...SOUTHERN MIDLANDS AND PEE DEE... CITY SKY/WX TMP DP RH WIND PRES REMARKS GEORGETOWN FAIR 66 64 94 CALM 30.04S KINGSTREE FAIR 63 61 94 CALM 30.04S ORANGEBURG CLEAR 65 64 97 CALM 30.04S BARNWELL FAIR 66 66 100 CALM 30.04F AIKEN FAIR 66 63 88 CALM 30.08S MANNING FAIR 63 63 100 N10 30.04S COLUMBIA CLOUDY 67 62 84 S3 30.04R SUMTER PTCLDY 67 63 86 CALM 30.02S FLORENCE CLEAR 67 64 90 CALM 30.04S MYRTLE BEACH PTCLDY 66 64 94 NW6 30.04 N MYRTLE BEACH CLEAR 68 64 87 NW5 30.03S $$ GAZ063-065-086>088-099>101-113>116-118-119-134>141-150-271200- ...SOUTHEAST GEORGIA... CITY SKY/WX TMP DP RH WIND PRES REMARKS SAVANNAH ARPT MOCLDY 74 71 91 N3 30.03R HUNTER AAF PTCLDY 75 72 91 CALM 30.00S FORT STEWART CLOUDY 73 72 94 CALM 30.00S STATESBORO CLOUDY 73 32 22 CALM 30.03F SYLVANIA CLOUDY 73 72 98 CALM 30.04F CLAXTON FAIR 69 68 98 CALM 30.03S FOG ...CSRA...CENTRAL AND FAR SOUTHEAST GEORGIA... CITY SKY/WX TMP DP RH WIND PRES REMARKS THOMSON CLOUDY 65 63 91 CALM 30.10S AUGUSTA-BUSH PTCLDY 65 63 93 CALM 30.03F AUGUSTA-DANIEL MOCLDY 70 61 73 CALM 30.05S SWAINSBORO FAIR 68 68 100 CALM 30.05S VIDALIA PTCLDY 72 72 100 CALM 30.04S EASTMAN FAIR 69 69 100 CALM 30.07R HAZLEHURST FAIR 73 73 100 CALM 30.03S FOG ALMA FOG 72 71 97 CALM 30.03R VSB 3/4 WAYCROSS FOG 74 74 100 CALM 30.03S VSB 1 JESUP FOG 73 70 88 CALM 30.03S VSB 1/4 BAXLEY FOG 73 73 100 CALM 30.03S VSB 1/4 BRUNSWICK FOG 73 73 100 CALM 30.02S VSB 1/2 SAINT SIMONS MOCLDY 76 75 97 NW5 30.01S $$ SCZ027-028-034-036>038-045-046-048>050-GAZ119-141-271200- ...LAKE AND SUPPLEMENTAL COASTAL OBSERVATIONS... STATION/POSITION TIME TEMP WIND PRES WAVE SWELL AIR SEA DIR/SP/G HT/PER HT/PER/DIR (UTC) (F) (DEG/KT/KT) (MB) (FT/S) (FT/S/D) WINYAH BAY 0945 69 310/ 2 1017.0 LAKE MURRAY 1020 71 CALM / 1 1016.3 ACE BASIN NERRS 0945 72 CALM 1017.0 FORT PULASKI 1048 76 84 360/ 5/ 6 1016.8R SAPELO ISLAND 1000 76 340/ 4 1016.0 $$ ANZ835-935-AMZ111-154-330-350-352-354-370-450-454-472-271200- ...C-MAN AND BUOY OBSERVATIONS... STATION/POSITION TIME TEMP WIND PRES WAVE SWELL AIR SEA DIR/SP/G HT/PER HT/PER/DIR (UTC) (F) (DEG/KT/KT) (MB) (FT/S) (FT/S/D) BUOY 41004 1050 79 81 20/ 8/ 10 1016.0S 2/ 8 2/140/ 8 BUOY 41008 1050 79 82 70/ 2/ 2 1016.0R 2/ 8 2/ 90/ 8 FOLLY BEACH CMAN 1000 73 300/ 3/ 4 1017.2R CAPERS NEARSHORE 1008 84 83 360/ 6/ 8 1016.5S FRIPP NEARSHORE 1008 80 83 30/ 6/ 8 1016.1F STATION/POSITION TIME TEMP WIND PRES WAVE SWELL AIR SEA DIR/SP/G HT/PER HT/PER/DIR (UTC) (F) (DEG/KT/KT) (MB) (FT/S) (FT/S/D) 5E ST. MARYS GA 1030 80 N/A 1/ 8 FRYING PAN BUOY 1050 78 80 10/ 6/ 8 1016.1S 2/ 8 2/120/ 8 BUOY 41025 1050 77 81 350/ 8/ 10 1016.0R 2/ 7 2/ 90/ 7 CAPE LOOKOUT NC 1000 75 350/ 4/ 5 1015.9R BUOY 41002 1050 77 80 250/ 16/ 19 1016.5R 3/ 5 BUOY 41010 1050 83 83 190/ 12/ 14 1015.8R 3/ 8 2/130/ 8 ST AUGUSTINE FL 1100 75 78 340/ 3/ 3 1016.0R $$

USA.gov is the U.S. government's official web portal to all federal, state and local government web resources and services.